Location: Buch
(49.7331°N, 12.1098°E)
Time: 15:30:28
(UTC+00:00)

Okean 1-7 - Pass Details

Date: 12 May 2021
Orbit: 592 x 617 km, 82.5° (Epoch: 17 June)

Event Time Altitude Azimuth Distance (km) Brightness Sun altitude
Exits shadow 22:43:28 67° 152° (SSE) 648 2.8 -21.7°
Maximum altitude 22:43:55 77° 98° (E) 618 2.9 -21.7°
Drops below altitude 10° 22:48:13 10° 13° (NNE) 1,949 6.6 -21.7°
Sets 22:50:27 0° 12° (NNE) 2,860 7.8 -21.8°
